Regional Weather Roundup
Issued by NWS Northern Indiana

Home | Current Version | Previous Version | Text Only | Print | Product List | Glossary On
Versions: 1 2 3 4 5 6 7 8 9 10 11 12 13 14 15 16 17 18 19 20 21 22 23 24 25 26 27 28 29 30 31 32 33 34 35 36 37 38 39 40 41 42 43 44 45 46 47 48 49 50
000
ASUS43 KIWX 182110
RWRIWX

KIWX WEATHER ROUNDUP
NATIONAL WEATHER SERVICE NORTHERN INDIANA
500 PM EDT THU SEP 18 2014

NOTE: "FAIR" INDICATES FEW OR NO CLOUDS BELOW 12,000 FEET WITH NO
SIGNIFICANT WEATHER AND/OR OBSTRUCTIONS TO VISIBILITY.

* THESE STATIONS ARE NOT UNDER NWS QUALITY CONTROL. THEY ALSO MAY NOT
  REPORT WEATHER SUCH AS PRECIPITATION OR FOG.

INZ001>027-182200-
NORTHERN INDIANA

CITY           SKY/WX    TMP DP  RH WIND       PRES   REMARKS
GARY*          SUNNY     68  54  60 NE14      30.12F
VALPARAISO     SUNNY     70  52  52 VRB7      30.10F
MICHIGAN CITY* SUNNY     64  48  55 N9        30.12S
LAPORTE*       SUNNY     69  54  58 N13       30.11S
KNOX*          SUNNY     72  47  41 SE7       30.09F
SOUTH BEND     SUNNY     72  48  42 NE8       30.11F
ELKHART*       MOSUNNY   72  48  43 NE7       30.12S
GOSHEN         SUNNY     72  50  45 VRB6      30.10F
MONTICELLO*    SUNNY     71  49  46 E5        30.07F
LOGANSPORT*    SUNNY     70  45  40 E8        30.10S
ROCHESTER*     SUNNY     73  46  38 E8        30.10S
WARSAW*        SUNNY     70  50  49 E9        30.10F
ANGOLA*        MOSUNNY   72  48  43 E5        30.11F
FORT WAYNE     MOSUNNY   71  48  43 NE3       30.11S
HUNTINGTON*    SUNNY     69  50  49 NE5       30.09F
PERU/GRISSOM   SUNNY     71  52  50 E9        30.09S
MARION*        SUNNY     71  45  39 E8        30.10S

$$
INZ028>050-182200-
CENTRAL INDIANA

CITY           SKY/WX    TMP DP  RH WIND       PRES   REMARKS
LAFAYETTE      SUNNY     71  50  47 NE10      30.07F
KOKOMO*        SUNNY     70  48  46 E7        30.09S
MUNCIE*        SUNNY     71  40  32 E9        30.09S
INDIANAPOLIS   MOSUNNY   72  47  40 E10       30.06F

$$
MIZ043>046-050>051-056>058-064>065-071>073-077>080-182200-
SOUTHWEST LOWER MICHIGAN

CITY           SKY/WX    TMP DP  RH WIND       PRES   REMARKS
BATTLE CREEK   MOSUNNY   68  50  52 NE9       30.13F
BENTON HARBOR  SUNNY     66  50  56 N9        30.12F
COLDWATER*     MOSUNNY   69  52  54 N8        30.12F
HILLSDALE*     MOSUNNY   67  50  55 NE6       30.13S
HOLLAND        SUNNY     70  54  56 W9        30.13F
GRAND RAPIDS   MOSUNNY   66  55  67 NE12      30.14F
KALAMAZOO      MOSUNNY   68  49  50 VRB6      30.13F
STURGIS*       MOSUNNY   70  52  52 N5        30.11F
THREE RIVERS*  FAIR      69  51  51 NE9       30.12S

$$
OHZ001>008-015>018-024>025-182200-
NORTHWEST OHIO

CITY           SKY/WX    TMP DP  RH WIND       PRES   REMARKS
WAUSEON*       PTSUNNY   68  50  52 NE6       30.11F
DEFIANCE       PTSUNNY   73  49  42 NE9       30.11S
FINDLAY        MOSUNNY   70  49  47 NE10      30.10R
TOLEDO EXPRESS MOSUNNY   70  49  47 VRB3      30.11S
TOLEDO METCALF SUNNY     68  50  52 E9        30.13S
LIMA           SUNNY     72  48  42 NE10G18   30.09F

$$
&&



USA.gov is the U.S. government's official web portal to all federal, state and local government web resources and services.